Weather Roundup
Issued by NWS

Home | Current Version | Previous Version | Text Only | Print | Product List | Glossary On
Versions: 1 2 3 4 5 6 7 8 9 10 11 12 13 14 15 16 17 18 19 20 21 22 23 24 25 26 27 28 29 30 31 32 33 34 35 36 37 38 39 40 41 42 43 44 45 46 47 48 49 50
984
NZUS93 KARX 291210
HRRWXR

CURRENT HOURLY OBSERVATIONS ACROSS
MUCH OF THE UPPER MISSISSIPPI VALLEY
NATIONAL WEATHER SERVICE LA CROSSE WI
700 AM CDT MON AUG 29 2016


...SOUTHEAST MINNESOTA...


CITY           SKY/WX    TMP DP  RH WIND       PRES   REMARKS
ROCHESTER      CLOUDY    65  65 100 S7        30.22R FOG
ROCHESTER/MAYO FAIR      66  66 100 SE9       30.21R
WINONA         FOG       68  68 100 CALM      30.21R VSB 3/4
AUSTIN         CLOUDY    66  66 100 SE6       30.21R FOG
ALBERT LEA     FOG       70  68  94 S5        30.19R VSB 1/4
DODGE CENTER   FOG       64  64 100 SE5       30.21R VSB<1/4
PRESTON        MOCLDY    65  63  95 S5        30.23R FOG
OWATONNA       MOCLDY    68  66  94 SE6       30.19R FOG
FARIBAULT      CLEAR     66  66 100 SE3       30.19R FOG
$$

...ELSEWHERE IN MINNESOTA...


CITY           SKY/WX    TMP DP  RH WIND       PRES   REMARKS
MINNEAPOLIS    PTCLDY    70  67  90 SE7       30.18R
INTNL FALLS    CLOUDY    64  61  90 CALM      30.16R
DULUTH         LGT RAIN  63  62  97 SE6       30.13F
RED WING       CLEAR     70  68  94 CALM      30.18R
REDWOOD FALLS  CLEAR     65  62  90 E5        30.12R
MANKATO        CLEAR     64  63  94 SE8       30.17R
WORTHINGTON    PTCLDY    66  64  93 S7        30.15S
FAIRMONT       PTCLDY    63  61  93 SE6       30.17R
$$

...SOUTHWEST WISCONSIN...


CITY           SKY/WX    TMP DP  RH WIND       PRES   REMARKS
LA CROSSE      CLEAR     67  66  97 SE5       30.21R
PRAIRIE DU CHI CLEAR     67  65  94 CALM      30.22R
BOSCOBEL       FOG       67  66  97 CALM      30.23R VSB<1/4
LONE ROCK      FOG       66  65  96 E3        30.25R VSB 1/4
PLATTEVILLE    PTCLDY    67  67 100 E6        30.24R
FORT MC COY    FOG       58  58 100 CALM      30.24S VSB 3/4
CAMP DOUGLAS   FOG       64  64 100 S3        30.23S VSB 1/4
MAUSTON-NEW LI FOG       64  64 100 CALM      30.23S VSB<1/4
VIROQUA        FAIR      66  66 100 CALM      30.25R
WIS DELLS      CLOUDY    69  67  95 S6        30.25S FOG
$$

...ELSEWHERE IN WISCONSIN...


CITY           SKY/WX    TMP DP  RH WIND       PRES   REMARKS
MILWAUKEE      FOG       68  66  93 N3        30.25S VSB 1/4
MADISON        PTCLDY    66  65  96 CALM      30.24S FOG
GREEN BAY      CLOUDY    64  64 100 CALM      30.25R
EAU CLAIRE     CLEAR     67  66  97 CALM      30.20R
BLACK RVR FLS  FOG       60  60 100 CALM      30.22R VSB<1/4
MEDFORD        CLOUDY    65  65 100 S5        30.25R FOG
WAUSAU         CLOUDY    66  65  96 SE3       30.23S FOG
WIS RAPIDS     CLOUDY    68  68 100 S7        30.25R FOG
MARSHFIELD     FOG       67  65  93 S7        30.24R VSB<1/4
RICE LAKE      LGT RAIN  67  65  96 NW5       30.26R
$$

...NORTHEAST IOWA...


CITY           SKY/WX    TMP DP  RH WIND       PRES   REMARKS
WATERLOO       CLOUDY    68  66  93 SE3       30.19R
DUBUQUE        PTCLDY    67  66  97 CALM      30.23R FOG
DECORAH        CLOUDY    66  66 100 SE5       30.21S
MASON CITY     CLOUDY    66  66 100 SE6       30.21R FOG
CHARLES CITY   PTCLDY    66  66 100 SE6       30.20F FOG
OELWEIN        CLOUDY    68  66  94 SE5       30.21S
$$

...ELSEWHERE IN IOWA...


CITY           SKY/WX    TMP DP  RH WIND       PRES   REMARKS
DES MOINES     MOCLDY    72  71  97 SE7       30.17R
IOWA CITY      CLOUDY    70  68  93 NE5       30.21R
FORT DODGE     CLOUDY    64  63  94 E5        30.19R
MARSHALLTOWN   CLOUDY    69  69 100 E5        30.18S
CEDAR RAPIDS   CLOUDY    68  68 100 E7        30.20R
$$

...NORTHERN ILLINOIS...


CITY           SKY/WX    TMP DP  RH WIND       PRES   REMARKS
CHICAGO-OHARE  PTCLDY    72  69  90 NE6       30.23R
CHICAGO-MIDWAY PTCLDY    74  67  78 N6        30.22R
MOLINE         FOG       70  68  93 E5        30.20R VSB 1/2
ROCKFORD       CLOUDY    69  67  93 NE3       30.24R
PEORIA         CLEAR     69  69 100 VRB3      30.20R
$$

NOTE: "FAIR" INDICATES FEW OR NO CLOUDS BELOW 12,000 FEET WITH NO
SIGNIFICANT WEATHER AND/OR OBSTRUCTIONS TO VISIBILITY. WIND
SPEEDS ARE IN MILES-PER-HOUR.




USA.gov is the U.S. government's official web portal to all federal, state and local government web resources and services.